Weather Roundup
Issued by NWS

Home | Current Version | Previous Version | Text Only | Print | Product List | Glossary On
Versions: 1 2 3 4 5 6 7 8 9 10 11 12 13 14 15 16 17 18 19 20 21 22 23 24 25 26 27 28 29 30 31 32 33 34 35 36 37 38 39 40 41 42 43 44 45 46 47 48 49 50
000
NZUS93 KARX 282210
HRRWXR

CURRENT HOURLY OBSERVATIONS ACROSS
MUCH OF THE UPPER MISSISSIPPI VALLEY
NATIONAL WEATHER SERVICE LA CROSSE WI
500 PM CDT THU APR 28 2016


...SOUTHEAST MINNESOTA...


CITY           SKY/WX    TMP DP  RH WIND       PRES   REMARKS
ROCHESTER      LGT RAIN  40  38  93 NE12      29.99R WCI  33
ROCHESTER/MAYO CLOUDY    39  39 100 NE6       30.00R WCI  35
WINONA         CLOUDY    41  37  87 E3        30.02R
AUSTIN         CLOUDY    41  37  87 NE7       29.98R
ALBERT LEA     CLOUDY    39  39 100 NE9       29.98R WCI  33
DODGE CENTER   CLOUDY    39  37  93 NE13      29.98F WCI  32
PRESTON        CLOUDY    39  36  88 NE8       29.98R WCI  34
OWATONNA       CLOUDY    39  36  87 NE9       30.01R WCI  33
FARIBAULT      CLOUDY    39  37  93 NE7       30.01S WCI  34
$$

...ELSEWHERE IN MINNESOTA...


CITY           SKY/WX    TMP DP  RH WIND       PRES   REMARKS
MINNEAPOLIS    LGT RAIN  41  35  79 NE10      30.06R
INTNL FALLS    SUNNY     54  26  34 N10       30.11S
DULUTH         MOSUNNY   45  26  47 E14       30.09S
RED WING       LGT RAIN  41  37  87 E6        30.03R
REDWOOD FALLS  CLOUDY    41  37  86 E6        30.03S
MANKATO        CLOUDY    39  36  87 E10       30.02R WCI  32
WORTHINGTON    CLOUDY    39  36  89 NE9       30.01R WCI  33
FAIRMONT       CLOUDY    41  30  65 NE9       29.99S
$$

...SOUTHWEST WISCONSIN...


CITY           SKY/WX    TMP DP  RH WIND       PRES   REMARKS
LA CROSSE      CLOUDY    43  38  82 E7        30.00R
PRAIRIE DU CHI CLOUDY    44  38  79 NE8       29.97R
BOSCOBEL       CLOUDY    45  38  76 E9        29.97S
LONE ROCK      LGT RAIN  42  39  89 E12       29.98S FOG
PLATTEVILLE    CLOUDY    44  42  92 NE10      29.95R
FORT MC COY    CLOUDY    40  40  97 E8        30.01R FOG
CAMP DOUGLAS   CLOUDY    40  40 100 E13       30.00R WCI  33
MAUSTON-NEW LI NOT AVBL
VIROQUA        CLOUDY    40  40  99 E10       29.97R WCI  33
WIS DELLS      CLOUDY    39  38  93 E8        29.98R FOG     WCI  34
$$

...ELSEWHERE IN WISCONSIN...


CITY           SKY/WX    TMP DP  RH WIND       PRES   REMARKS
MILWAUKEE      CLOUDY    41  37  86 NE12G24   29.99R
MADISON        DRIZZLE   40  37  89 E9        29.98R FOG     WCI  34
GREEN BAY      CLOUDY    45  31  58 E14       30.03S
EAU CLAIRE     LGT RAIN  43  36  76 E12G18    30.03R
BLACK RVR FLS  RAIN      41  41  99 NE9       30.01R
MEDFORD        CLOUDY    41  34  76 S8        30.02R
WAUSAU         LGT RAIN  43  34  70 VRB3      30.01F
WIS RAPIDS     LGT RAIN  40  35  83 E6        30.03R
MARSHFIELD     LGT RAIN  39  34  82 E12       30.02R WCI  32
RICE LAKE      CLOUDY    46  33  59 S8        30.03R
$$

...NORTHEAST IOWA...


CITY           SKY/WX    TMP DP  RH WIND       PRES   REMARKS
WATERLOO       CLOUDY    48  45  89 NE13      29.93R FOG
DUBUQUE        LGT RAIN  45  43  93 NE12      29.93R FOG
DECORAH        MIX PCPN  41  41 100 NE6       29.96R
MASON CITY     CLOUDY    44  41  89 NE10      29.98R
CHARLES CITY   CLOUDY    45  45 100 NE10      29.96R
OELWEIN        CLOUDY    46  46 100 NE12      29.94R
$$

...ELSEWHERE IN IOWA...


CITY           SKY/WX    TMP DP  RH WIND       PRES   REMARKS
DES MOINES     CLOUDY    54  46  74 W17G25    29.92R
IOWA CITY      CLOUDY    55  47  74 W7        29.92R
FORT DODGE     CLOUDY    46  41  81 N7        29.97R
MARSHALLTOWN   CLOUDY    52  49  89 N16       29.91S
CEDAR RAPIDS   LGT RAIN  52  51  97 NW3       29.90R
$$

...NORTHERN ILLINOIS...


CITY           SKY/WX    TMP DP  RH WIND       PRES   REMARKS
CHICAGO-OHARE  CLOUDY    46  40  79 NE12      29.93S
CHICAGO-MIDWAY CLOUDY    49  41  74 NE9       29.92S
MOLINE         CLOUDY    57  49  74 NW6       29.90R
ROCKFORD       CLOUDY    48  41  76 E13       29.96R
PEORIA         PTSUNNY   58  46  64 W10       29.91R
$$

NOTE: "FAIR" INDICATES FEW OR NO CLOUDS BELOW 12,000 FEET WITH NO
SIGNIFICANT WEATHER AND/OR OBSTRUCTIONS TO VISIBILITY. WIND
SPEEDS ARE IN MILES-PER-HOUR.




USA.gov is the U.S. government's official web portal to all federal, state and local government web resources and services.